Location: Newark
(10.6558°N, 61.4122°W)
Time: 02:26:23
(UTC+00:00)

ISS - Visible Passes

Search period start: 22 August 2019 00:00
Search period end: 01 September 2019 00:00
Orbit: 410 x 421 km, 51.6° (Epoch: 22 August)

Date Brightness Start Highest point End Pass type
(mag) Time Alt. Az. Time Alt. Az. Time Alt. Az.
22 Aug -1.6 08:13:25 23° ESE 08:13:25 23° ESE 08:15:52 10° ENE visible
23 Aug -2.6 09:00:21 24° WNW 09:00:59 25° NW 09:03:49 10° N visible
24 Aug -1.6 08:14:14 22° NNE 08:14:14 22° NNE 08:15:33 10° NNE visible
